CFG4HL EDDF-LFPG

Flight info

Callsign CFG4HL
Flight time 0h 52m
Altitude 24000
Route SOBRA2L/18 SOBRA Y180 NISIV DCT IDOSA/N0383F180 Y180 TILVI Q763 RAPOR DCT VEDUS
Aircraft A320/M-SDE3FGHIRWY/LB1

Departure

Time 2026-05-08 19:02
Airport Frankfurt Main Airport (EDDF)

Arrival

Time 2026-05-08 19:54
Airport Charles de Gaulle International Airport (LFPG)
Time Latitude Longitude Altitude Speed Heading
2026-05-08 18:39 50.04431 8.56329 329 ft 0 kts 167°
2026-05-08 18:50 50.04435 8.56327 356 ft 3 kts 164°
2026-05-08 18:50 50.04457 8.56307 362 ft 4 kts 131°
2026-05-08 18:50 50.04475 8.56287 361 ft 4 kts 168°
2026-05-08 18:51 50.04497 8.56288 359 ft 4 kts 230°
2026-05-08 18:51 50.04505 8.56324 362 ft 4 kts 262°
2026-05-08 18:51 50.04509 8.56355 361 ft 0 kts 249°
2026-05-08 18:53 50.04509 8.56354 356 ft 1 kts 249°
2026-05-08 18:53 50.04497 8.56304 358 ft 8 kts 249°
2026-05-08 18:54 50.04470 8.56196 363 ft 14 kts 249°
2026-05-08 18:54 50.04429 8.56045 359 ft 15 kts 230°
2026-05-08 18:54 50.04338 8.56058 359 ft 13 kts 159°
2026-05-08 18:54 50.04291 8.56157 355 ft 12 kts 85°
2026-05-08 18:55 50.04224 8.56250 356 ft 4 kts 160°
2026-05-08 18:55 50.04199 8.56263 355 ft 0 kts 160°
2026-05-08 18:55 50.04194 8.56266 354 ft 3 kts 160°
2026-05-08 18:56 50.04152 8.56288 362 ft 10 kts 171°
2026-05-08 18:56 50.04104 8.56185 359 ft 16 kts 250°
2026-05-08 18:56 50.04059 8.55994 354 ft 21 kts 250°
2026-05-08 18:56 50.04004 8.55766 357 ft 24 kts 249°
2026-05-08 18:57 50.03944 8.55515 353 ft 26 kts 250°
2026-05-08 18:57 50.03902 8.55338 355 ft 27 kts 250°
2026-05-08 18:57 50.03814 8.54968 351 ft 25 kts 250°
2026-05-08 18:57 50.03749 8.54699 354 ft 28 kts 249°
2026-05-08 18:58 50.03679 8.54405 345 ft 31 kts 250°
2026-05-08 18:58 50.03604 8.54087 349 ft 32 kts 250°
2026-05-08 18:58 50.03527 8.53756 338 ft 33 kts 250°
2026-05-08 18:58 50.03443 8.53415 336 ft 34 kts 249°
2026-05-08 18:59 50.03358 8.53058 333 ft 36 kts 250°
2026-05-08 18:59 50.03281 8.52734 333 ft 27 kts 249°
2026-05-08 18:59 50.03157 8.52595 334 ft 24 kts 180°
2026-05-08 18:59 50.02995 8.52597 335 ft 20 kts 179°
2026-05-08 19:00 50.02953 8.52597 335 ft 0 kts 179°
2026-05-08 19:01 50.02861 8.52599 333 ft 46 kts 179°
2026-05-08 19:01 50.02281 8.52604 335 ft 117 kts 179°
2026-05-08 19:01 50.01283 8.52612 336 ft 170 kts 180°
2026-05-08 19:01 50.00062 8.52622 892 ft 174 kts 178°
2026-05-08 19:02 49.98856 8.52674 1649 ft 174 kts 176°
2026-05-08 19:02 49.97565 8.52762 2044 ft 196 kts 175°
2026-05-08 19:02 49.96112 8.52877 2393 ft 221 kts 175°
2026-05-08 19:02 49.94590 8.52993 3066 ft 230 kts 175°
2026-05-08 19:03 49.92972 8.53109 3961 ft 232 kts 175°
2026-05-08 19:03 49.91343 8.53224 4831 ft 235 kts 176°
2026-05-08 19:03 49.89714 8.53336 5680 ft 238 kts 178°
2026-05-08 19:03 49.88048 8.53421 6542 ft 240 kts 184°
2026-05-08 19:04 49.86394 8.52974 7267 ft 248 kts 199°
2026-05-08 19:04 49.84718 8.52036 7720 ft 267 kts 201°
2026-05-08 19:04 49.82942 8.51023 8473 ft 274 kts 201°
2026-05-08 19:04 49.81130 8.49992 9327 ft 279 kts 201°
2026-05-08 19:05 49.79299 8.48938 10173 ft 283 kts 205°
2026-05-08 19:05 49.77595 8.47241 10541 ft 302 kts 226°
2026-05-08 19:05 49.76411 8.44443 10780 ft 325 kts 250°
2026-05-08 19:05 49.76092 8.40933 11110 ft 343 kts 275°
2026-05-08 19:06 49.76601 8.37266 11754 ft 351 kts 283°
2026-05-08 19:06 49.77204 8.33579 12473 ft 355 kts 283°
2026-05-08 19:06 49.77812 8.29827 12758 ft 359 kts 283°
2026-05-08 19:06 49.78413 8.26118 12840 ft 359 kts 283°
2026-05-08 19:07 49.79019 8.22357 12910 ft 359 kts 283°
2026-05-08 19:07 49.79622 8.18590 13064 ft 360 kts 283°
2026-05-08 19:07 49.80224 8.14825 13101 ft 361 kts 283°
2026-05-08 19:07 49.80827 8.11028 13100 ft 361 kts 282°
2026-05-08 19:08 49.81415 8.07312 13099 ft 361 kts 282°
2026-05-08 19:08 49.82018 8.03493 13418 ft 366 kts 282°
2026-05-08 19:08 49.82618 7.99642 14198 ft 368 kts 281°
2026-05-08 19:08 49.82804 7.95732 14847 ft 369 kts 266°
2026-05-08 19:09 49.82691 7.91744 15534 ft 371 kts 266°
2026-05-08 19:09 49.82565 7.87736 16220 ft 373 kts 266°
2026-05-08 19:09 49.82429 7.83690 16884 ft 376 kts 266°
2026-05-08 19:09 49.82288 7.79641 17544 ft 379 kts 266°
2026-05-08 19:10 49.82144 7.75628 18189 ft 381 kts 266°
2026-05-08 19:10 49.81996 7.71496 18790 ft 384 kts 266°
2026-05-08 19:10 49.81850 7.67339 19346 ft 388 kts 266°
2026-05-08 19:10 49.81708 7.63265 19896 ft 391 kts 266°
2026-05-08 19:11 49.81563 7.59109 20451 ft 394 kts 266°
2026-05-08 19:11 49.81415 7.54889 20991 ft 396 kts 266°
2026-05-08 19:11 49.81261 7.50632 21524 ft 399 kts 266°
2026-05-08 19:11 49.81103 7.46315 22043 ft 402 kts 266°
2026-05-08 19:12 49.80944 7.42025 22541 ft 405 kts 266°
2026-05-08 19:12 49.80780 7.37652 23041 ft 407 kts 266°
2026-05-08 19:12 49.80617 7.33262 23523 ft 410 kts 266°
2026-05-08 19:12 49.80452 7.28840 23929 ft 412 kts 266°
2026-05-08 19:13 49.80283 7.24394 24071 ft 414 kts 266°
2026-05-08 19:13 49.80109 7.19868 24100 ft 425 kts 266°
2026-05-08 19:13 49.79928 7.15278 24098 ft 428 kts 266°
2026-05-08 19:13 49.79750 7.10721 24097 ft 429 kts 266°
2026-05-08 19:14 49.79568 7.06092 24101 ft 429 kts 266°
2026-05-08 19:14 49.79382 7.01463 24100 ft 429 kts 265°
2026-05-08 19:14 49.79194 6.96845 24100 ft 429 kts 265°
2026-05-08 19:14 49.79004 6.92295 24100 ft 429 kts 265°
2026-05-08 19:15 49.78810 6.87668 24095 ft 429 kts 265°
2026-05-08 19:15 49.78616 6.83035 24094 ft 429 kts 265°
2026-05-08 19:15 49.78420 6.78409 24098 ft 429 kts 265°
2026-05-08 19:15 49.78226 6.73844 24092 ft 430 kts 265°
2026-05-08 19:16 49.78029 6.69213 24082 ft 430 kts 265°
2026-05-08 19:16 49.77829 6.64591 24073 ft 430 kts 265°
2026-05-08 19:16 49.77628 6.59974 24072 ft 430 kts 265°
2026-05-08 19:16 49.77425 6.55402 24072 ft 430 kts 265°
2026-05-08 19:17 49.77218 6.50772 24070 ft 430 kts 265°
2026-05-08 19:17 49.77009 6.46129 24071 ft 430 kts 265°
2026-05-08 19:17 49.76800 6.41560 24072 ft 430 kts 265°
2026-05-08 19:17 49.76586 6.36932 24072 ft 430 kts 265°
2026-05-08 19:18 49.76372 6.32312 24077 ft 430 kts 265°
2026-05-08 19:18 49.76155 6.27681 24072 ft 431 kts 265°
2026-05-08 19:18 49.75936 6.23049 24068 ft 431 kts 265°
2026-05-08 19:18 49.75716 6.18417 24065 ft 431 kts 265°
2026-05-08 19:19 49.75496 6.13845 24065 ft 431 kts 265°
2026-05-08 19:19 49.75272 6.09210 24065 ft 431 kts 265°
2026-05-08 19:19 49.75047 6.04569 24065 ft 431 kts 265°
2026-05-08 19:19 49.74821 5.99996 24065 ft 431 kts 265°
2026-05-08 19:20 49.74590 5.95360 24067 ft 431 kts 265°
2026-05-08 19:20 49.74499 5.93796 24067 ft 431 kts 263°
2026-05-08 19:20 49.73262 5.86356 24068 ft 432 kts 248°
2026-05-08 19:20 49.71892 5.82202 24060 ft 433 kts 238°
2026-05-08 19:21 49.70167 5.78378 24066 ft 433 kts 235°
2026-05-08 19:21 49.68423 5.74646 24064 ft 434 kts 235°
2026-05-08 19:21 49.66649 5.70852 24057 ft 434 kts 234°
2026-05-08 19:21 49.64880 5.67071 24063 ft 434 kts 235°
2026-05-08 19:22 49.63148 5.63232 24062 ft 434 kts 239°
2026-05-08 19:22 49.61800 5.59130 24064 ft 433 kts 249°
2026-05-08 19:22 49.60897 5.54695 24062 ft 432 kts 258°
2026-05-08 19:22 49.60466 5.50103 24065 ft 432 kts 266°
2026-05-08 19:23 49.60245 5.45487 24063 ft 432 kts 265°
2026-05-08 19:23 49.59967 5.40927 24064 ft 429 kts 265°
2026-05-08 19:23 49.59692 5.36432 24082 ft 412 kts 265°
2026-05-08 19:23 49.59412 5.32124 24083 ft 394 kts 264°
2026-05-08 19:24 49.59131 5.28058 24085 ft 377 kts 264°
2026-05-08 19:24 49.58844 5.24066 24091 ft 378 kts 264°
2026-05-08 19:24 49.58558 5.19972 24084 ft 387 kts 267°
2026-05-08 19:24 49.58788 5.15839 24083 ft 388 kts 286°
2026-05-08 19:25 49.59888 5.12106 24085 ft 388 kts 304°
2026-05-08 19:25 49.61499 5.08755 24085 ft 389 kts 308°
2026-05-08 19:25 49.63160 5.05448 24084 ft 390 kts 308°
2026-05-08 19:25 49.64827 5.02136 24086 ft 390 kts 308°
2026-05-08 19:26 49.66471 4.98859 24090 ft 389 kts 308°
2026-05-08 19:26 49.68132 4.95538 24090 ft 389 kts 307°
2026-05-08 19:26 49.69089 4.93188 24087 ft 391 kts 296°
2026-05-08 19:26 49.69920 4.89189 24086 ft 392 kts 279°
2026-05-08 19:27 49.69728 4.83627 24082 ft 395 kts 256°
2026-05-08 19:27 49.69206 4.80868 24081 ft 395 kts 254°
2026-05-08 19:27 49.68420 4.76848 24073 ft 395 kts 254°
2026-05-08 19:27 49.67359 4.71439 24071 ft 396 kts 254°
2026-05-08 19:28 49.66822 4.68696 24074 ft 396 kts 254°
2026-05-08 19:28 49.66021 4.64611 24075 ft 396 kts 254°
2026-05-08 19:28 49.65233 4.60585 24075 ft 397 kts 255°
2026-05-08 19:28 49.64433 4.56498 24076 ft 397 kts 255°
2026-05-08 19:29 49.63632 4.52410 24078 ft 397 kts 255°
2026-05-08 19:29 49.62829 4.48330 24075 ft 397 kts 255°
2026-05-08 19:29 49.62036 4.44306 24072 ft 397 kts 255°
2026-05-08 19:29 49.61230 4.40230 24070 ft 397 kts 255°
2026-05-08 19:30 49.60419 4.36138 24071 ft 398 kts 255°
2026-05-08 19:30 49.59606 4.32050 24073 ft 398 kts 255°
2026-05-08 19:30 49.58793 4.27963 24075 ft 398 kts 255°
2026-05-08 19:30 49.57989 4.23924 24077 ft 398 kts 255°
2026-05-08 19:31 49.57175 4.19841 24076 ft 398 kts 255°
2026-05-08 19:31 49.56359 4.15754 24077 ft 398 kts 255°
2026-05-08 19:31 49.55538 4.11666 23573 ft 402 kts 255°
2026-05-08 19:31 49.54715 4.07583 22817 ft 397 kts 254°
2026-05-08 19:32 49.53903 4.03582 22044 ft 386 kts 254°
2026-05-08 19:32 49.53108 3.99669 21199 ft 379 kts 253°
2026-05-08 19:32 49.52326 3.95814 20372 ft 374 kts 253°
2026-05-08 19:32 49.51565 3.92043 19631 ft 370 kts 254°
2026-05-08 19:33 49.50813 3.88256 18914 ft 365 kts 253°
2026-05-08 19:33 49.50072 3.84530 18184 ft 367 kts 252°
2026-05-08 19:33 49.49314 3.80795 17381 ft 372 kts 252°
2026-05-08 19:33 49.48533 3.76983 16592 ft 376 kts 252°
2026-05-08 19:34 49.47736 3.73120 15818 ft 380 kts 252°
2026-05-08 19:34 49.46929 3.69218 15056 ft 383 kts 252°
2026-05-08 19:34 49.46128 3.65343 14385 ft 383 kts 252°
2026-05-08 19:34 49.45332 3.61487 14150 ft 371 kts 252°
2026-05-08 19:35 49.44562 3.57768 14060 ft 355 kts 252°
2026-05-08 19:35 49.43829 3.54234 14080 ft 340 kts 252°
2026-05-08 19:35 49.43120 3.50821 14080 ft 337 kts 252°
2026-05-08 19:35 49.42407 3.47387 14081 ft 336 kts 252°
2026-05-08 19:36 49.41671 3.43973 14081 ft 336 kts 250°
2026-05-08 19:36 49.40853 3.40657 14079 ft 336 kts 248°
2026-05-08 19:36 49.39959 3.37330 14079 ft 336 kts 247°
2026-05-08 19:36 49.39043 3.34027 14077 ft 336 kts 246°
2026-05-08 19:37 49.38119 3.30708 13773 ft 335 kts 246°
2026-05-08 19:37 49.37214 3.27427 13460 ft 332 kts 247°
2026-05-08 19:37 49.36333 3.24197 13168 ft 330 kts 247°
2026-05-08 19:37 49.35453 3.20939 12874 ft 328 kts 247°
2026-05-08 19:38 49.34583 3.17699 12585 ft 327 kts 247°
2026-05-08 19:38 49.33728 3.14516 12308 ft 325 kts 247°
2026-05-08 19:38 49.32867 3.11326 12014 ft 323 kts 247°
2026-05-08 19:38 49.32007 3.08144 11730 ft 322 kts 247°
2026-05-08 19:39 49.31149 3.04968 11439 ft 321 kts 247°
2026-05-08 19:39 49.30293 3.01810 11165 ft 319 kts 247°
2026-05-08 19:39 49.29448 2.98708 11059 ft 318 kts 247°
2026-05-08 19:39 49.28595 2.95580 11071 ft 319 kts 247°
2026-05-08 19:40 49.27739 2.92440 11067 ft 319 kts 247°
2026-05-08 19:40 49.26881 2.89291 11071 ft 319 kts 247°
2026-05-08 19:40 49.26026 2.86160 11077 ft 317 kts 247°
2026-05-08 19:40 49.25186 2.83088 11076 ft 316 kts 247°
2026-05-08 19:41 49.24334 2.79971 11076 ft 316 kts 247°
2026-05-08 19:41 49.23484 2.76862 11076 ft 316 kts 247°
2026-05-08 19:41 49.22633 2.73760 11073 ft 316 kts 247°
2026-05-08 19:41 49.21788 2.70689 11079 ft 316 kts 247°
2026-05-08 19:42 49.20930 2.67580 11081 ft 316 kts 247°
2026-05-08 19:42 49.20071 2.64477 11072 ft 317 kts 247°
2026-05-08 19:42 49.19206 2.61353 11072 ft 319 kts 247°
2026-05-08 19:42 49.18422 2.58227 11076 ft 318 kts 251°
2026-05-08 19:43 49.17737 2.55027 10691 ft 315 kts 252°
2026-05-08 19:43 49.17064 2.51831 10226 ft 313 kts 252°
2026-05-08 19:43 49.16397 2.48676 9750 ft 311 kts 252°
2026-05-08 19:43 49.15736 2.45551 9493 ft 302 kts 252°
2026-05-08 19:44 49.15105 2.42548 9353 ft 290 kts 252°
2026-05-08 19:44 49.14508 2.39704 9199 ft 279 kts 252°
2026-05-08 19:44 49.13922 2.36901 8868 ft 276 kts 252°
2026-05-08 19:44 49.13342 2.34109 8451 ft 274 kts 252°
2026-05-08 19:45 49.12768 2.31330 8016 ft 274 kts 252°
2026-05-08 19:45 49.12206 2.28591 7629 ft 272 kts 251°
2026-05-08 19:45 49.11422 2.25985 7211 ft 270 kts 235°
2026-05-08 19:45 49.10326 2.23666 6784 ft 269 kts 232°
2026-05-08 19:46 49.09202 2.21375 6366 ft 269 kts 231°
2026-05-08 19:46 49.08080 2.19088 5937 ft 268 kts 232°
2026-05-08 19:46 49.05845 2.14562 5031 ft 268 kts 229°
2026-05-08 19:47 49.04398 2.12838 4563 ft 264 kts 201°
2026-05-08 19:47 49.02619 2.12245 4104 ft 262 kts 184°
2026-05-08 19:47 49.00798 2.12143 3968 ft 261 kts 169°
2026-05-08 19:47 48.99155 2.13194 3980 ft 258 kts 137°
2026-05-08 19:48 48.98234 2.15469 3983 ft 253 kts 101°
2026-05-08 19:48 48.98392 2.17958 3981 ft 233 kts 63°
2026-05-08 19:48 48.99264 2.19940 3979 ft 217 kts 55°
2026-05-08 19:48 49.00101 2.21754 3989 ft 200 kts 57°
2026-05-08 19:49 49.00660 2.23547 3985 ft 181 kts 74°
2026-05-08 19:49 49.00901 2.25334 3844 ft 161 kts 82°
2026-05-08 19:49 49.01031 2.26937 3656 ft 144 kts 84°
2026-05-08 19:49 49.01127 2.28386 3486 ft 138 kts 84°
2026-05-08 19:50 49.01215 2.29834 3308 ft 136 kts 85°
2026-05-08 19:50 49.01299 2.31272 3130 ft 136 kts 84°
2026-05-08 19:50 49.01381 2.32699 2944 ft 135 kts 84°
2026-05-08 19:50 49.01461 2.34124 2766 ft 134 kts 84°
2026-05-08 19:51 49.01539 2.35524 2589 ft 134 kts 84°
2026-05-08 19:51 49.01618 2.36941 2410 ft 133 kts 85°
2026-05-08 19:51 49.01695 2.38345 2236 ft 133 kts 84°
2026-05-08 19:51 49.01774 2.39741 2056 ft 131 kts 84°
2026-05-08 19:52 49.01852 2.41125 1878 ft 131 kts 84°
2026-05-08 19:52 49.01926 2.42509 1705 ft 131 kts 84°
2026-05-08 19:52 49.02000 2.43885 1512 ft 130 kts 84°
2026-05-08 19:52 49.02074 2.45258 1330 ft 131 kts 84°
2026-05-08 19:53 49.02148 2.46644 1146 ft 132 kts 84°
2026-05-08 19:53 49.02227 2.48027 1002 ft 134 kts 84°
2026-05-08 19:53 49.02306 2.49435 816 ft 133 kts 82°
2026-05-08 19:53 49.02393 2.50835 598 ft 132 kts 83°
2026-05-08 19:54 49.02459 2.52234 424 ft 132 kts 83°
2026-05-08 19:54 49.02533 2.53563 357 ft 109 kts 85°
2026-05-08 19:54 49.02579 2.54411 352 ft 45 kts 87°
2026-05-08 19:54 49.02594 2.54845 363 ft 39 kts 85°
2026-05-08 19:55 49.02587 2.55240 360 ft 36 kts 109°
2026-05-08 19:55 49.02511 2.55486 359 ft 22 kts 116°
2026-05-08 19:55 49.02425 2.55610 358 ft 15 kts 169°
2026-05-08 19:55 49.02403 2.55614 355 ft 0 kts 175°
2026-05-08 19:56 49.02384 2.55617 355 ft 6 kts 175°
2026-05-08 19:57 49.02323 2.55625 362 ft 12 kts 174°
2026-05-08 19:57 49.02215 2.55637 354 ft 18 kts 176°
2026-05-08 19:57 49.02092 2.55631 360 ft 17 kts 208°
2026-05-08 19:57 49.02065 2.55538 360 ft 4 kts 264°
2026-05-08 19:58 49.02063 2.55502 359 ft 3 kts 264°
2026-05-08 19:58 49.02061 2.55472 358 ft 3 kts 264°
2026-05-08 19:58 49.02060 2.55449 358 ft 2 kts 264°
2026-05-08 19:58 49.02059 2.55433 354 ft 1 kts 264°
2026-05-08 19:59 49.02057 2.55409 354 ft 6 kts 265°
2026-05-08 19:59 49.02052 2.55291 354 ft 16 kts 266°
2026-05-08 19:59 49.02042 2.55079 354 ft 21 kts 265°
2026-05-08 19:59 49.02025 2.54864 360 ft 16 kts 240°
2026-05-08 20:00 49.01937 2.54842 358 ft 10 kts 173°
2026-05-08 20:00 49.01877 2.54854 359 ft 5 kts 170°
2026-05-08 20:00 49.01846 2.54862 357 ft 4 kts 171°
2026-05-08 20:00 49.01817 2.54864 354 ft 4 kts 181°
2026-05-08 20:01 49.01794 2.54863 354 ft 3 kts 181°
2026-05-08 20:01 49.01775 2.54862 354 ft 2 kts 181°
2026-05-08 20:01 49.01740 2.54869 354 ft 10 kts 172°
2026-05-08 20:01 49.01638 2.54879 354 ft 18 kts 176°
2026-05-08 20:02 49.01512 2.54893 354 ft 18 kts 175°
2026-05-08 20:02 49.01412 2.54913 354 ft 11 kts 169°
2026-05-08 20:02 49.01356 2.54935 354 ft 6 kts 165°
2026-05-08 20:02 49.01319 2.54949 356 ft 5 kts 165°
2026-05-08 20:03 49.01287 2.54965 356 ft 4 kts 156°
2026-05-08 20:03 49.01255 2.55008 354 ft 8 kts 128°
2026-05-08 20:03 49.01243 2.55040 361 ft 0 kts 112°
2026-05-08 20:05 49.01241 2.55048 357 ft 3 kts 110°
2026-05-08 20:05 49.01239 2.55115 354 ft 9 kts 85°
2026-05-08 20:05 49.01245 2.55228 354 ft 12 kts 85°
2026-05-08 20:06 49.01253 2.55367 358 ft 15 kts 84°
2026-05-08 20:06 49.01263 2.55536 354 ft 18 kts 86°
2026-05-08 20:06 49.01265 2.55694 359 ft 11 kts 120°
2026-05-08 20:06 49.01204 2.55700 357 ft 5 kts 177°
2026-05-08 20:07 49.01183 2.55705 358 ft 0 kts 170°